Location: Hopkins Observatory
(42.6965°N, 73.1843°W)
Time: 21:49:20
(UTC-04:00)

Amateur Radio Satellites - All Passes

Search period start: 26 April 2015 21:19
Search period end: 27 April 2015 21:19
Location: Hopkins Observatory, 42.6965°N, 73.1843°W

Satellite Date Start Highest point End Downlink Frequencies (MHz)
Time Altitude Azimuth
UWE-3 26 Apr 21:20:22 21:24:22 36° 70° (ENE) 21:28:32 435.000/436.395/437.385
O/OREOS (USA 219) 26 Apr 21:21:51 21:24:47 17° 102° (ESE) 21:27:52 437.305
COMPASS 1 26 Apr 21:26:54 21:31:04 53° 261° (W) 21:35:14 437.405
FUNcube-1 26 Apr 21:27:00 21:30:54 33° 70° (ENE) 21:34:57 145.935
UKube-1 26 Apr 21:31:12 21:34:36 23° 67° (ENE) 21:38:04 .
SO-50 26 Apr 21:32:49 21:36:49 24° 247° (WSW) 21:40:39 436.795
Cosmos 2491 26 Apr 21:35:19 21:41:39 24° 81° (E) 21:48:22 435.465 / 435.565
GOMX 1 26 Apr 21:36:25 21:39:48 22° 268° (W) 21:43:13 467.674
DELFI C3 26 Apr 21:36:31 21:40:32 58° 74° (ENE) 21:44:34 145.870
HUMSAT D 26 Apr 21:39:24 21:42:40 23° 68° (ENE) 21:46:05 437.325/437.525
YUBILEINY 26 Apr 21:42:25 21:50:59 56° 75° (ENE) 21:59:31 435.215
STRAND 1 26 Apr 21:43:28 21:45:59 13° 300° (WNW) 21:48:15 437.568
Oscar 11 26 Apr 21:49:07 21:53:29 76° 258° (WSW) 21:57:52 145.826/435.025
VERMONT LUNAR 26 Apr 21:52:12 21:54:00 14° 210° (SSW) 21:55:45 437.305
ZACube-1 26 Apr 21:52:24 21:56:42 63° 75° (ENE) 22:01:09 437.345
SEEDS 26 Apr 21:55:15 21:58:39 22° 267° (W) 22:01:59 437.485
VELOX 1 26 Apr 22:01:22 22:04:52 24° 67° (ENE) 22:08:26 145.980
CUBEBUG 1 26 Apr 22:05:08 22:06:59 13° 63° (ENE) 22:09:02 437.445
CANX-2 26 Apr 22:07:09 22:09:22 13° 272° (W) 22:11:23 2200.000
DOVE 4 26 Apr 22:08:03 22:10:53 16° 271° (W) 22:13:38 437.250
AAUSAT CUBESAT 2 26 Apr 22:09:38 22:12:58 21° 268° (W) 22:16:12 437.432
CUTE 1.7 + AOD 2 26 Apr 22:16:44 22:18:24 12° 273° (W) 22:19:49 437.475
50 SAT 26 Apr 22:18:13 22:21:51 35° 71° (ENE) 22:25:34 437.505
HO-68 26 Apr 22:18:48 22:24:11 21° 270° (W) 22:29:19 435.675
AISAT 26 Apr 22:19:06 22:23:08 37° 70° (ENE) 22:27:14 437.250
DX 1 26 Apr 22:24:43 22:29:03 88° 255° (WSW) 22:33:25 434.975-435.025
PHONESAT 2.4 26 Apr 22:31:26 22:34:06 20° 207° (SSW) 22:36:44 2401.200-2431.200
CUBEBUG 2 26 Apr 22:33:19 22:37:16 31° 265° (W) 22:41:18 437.445
ANTELSAT 26 Apr 22:33:36 22:36:56 19° 91° (E) 22:40:21 437.575/2403.000
CINEMA 3 26 Apr 22:44:07 22:46:33 14° 273° (W) 22:48:50 145.822/145.860
QB50P2 26 Apr 22:53:33 22:55:45 14° 89° (E) 22:58:08 145.880/145.840
RS-15 26 Apr 22:56:17 23:07:45 68° 50° (NE) 23:19:45 29.354- 29.394
UWE-3 26 Apr 22:57:36 23:01:03 22° 268° (W) 23:04:30 435.000/436.395/437.385
O/OREOS (USA 219) 26 Apr 22:59:26 23:03:53 48° 297° (WNW) 23:08:19 437.305
ESTCUBE 1 26 Apr 23:01:48 23:06:13 56° 73° (ENE) 23:10:39 437.505/2401.250
FUNcube-1 26 Apr 23:03:47 23:07:20 23° 268° (W) 23:10:52 145.935
UKube-1 26 Apr 23:06:40 23:10:36 33° 263° (W) 23:14:30 .
NANOSAT C BR1 26 Apr 23:10:04 23:13:14 21° 93° (E) 23:16:31 145.865
POPSAT HIP 1 26 Apr 23:13:40 23:17:03 23° 93° (E) 23:20:30 437.405
HUMSAT D 26 Apr 23:14:26 23:18:17 33° 264° (W) 23:22:11 437.325/437.525
DELFI C3 26 Apr 23:14:31 23:16:07 12° 272° (W) 23:17:29 145.870
SPROUT 26 Apr 23:19:30 23:22:40 21° 67° (ENE) 23:25:57 437.525
TIGRISAT 26 Apr 23:22:19 23:27:00 59° 100° (E) 23:31:35 435.000
UNISAT 6 26 Apr 23:27:10 23:31:53 68° 101° (E) 23:36:31 437.425
Cosmos 2491 26 Apr 23:29:01 23:37:44 74° 280° (W) 23:46:33 435.465 / 435.565
ZACube-1 26 Apr 23:31:40 23:33:38 12° 273° (W) 23:35:22 437.345
BUGSAT 1 26 Apr 23:31:45 23:35:07 24° 94° (E) 23:38:35 437.445
Cosmos 2504 26 Apr 23:32:25 23:38:55 27° 64° (ENE) 23:45:14 435.465 / 435.565
VELOX 1 26 Apr 23:37:19 23:41:18 33° 264° (W) 23:45:16 145.980
CUBEBUG 1 26 Apr 23:38:35 23:42:53 66° 259° (W) 23:47:12 437.445
YUBILEINY 26 Apr 23:39:54 23:47:27 33° 275° (W) 23:54:45 435.215
DUCHIFAT 1 26 Apr 23:42:56 23:47:04 46° 99° (E) 23:51:12 145.980
POLYITAN 1 26 Apr 23:43:26 23:47:39 48° 99° (E) 23:51:50 437.675
50 SAT 26 Apr 23:53:54 23:56:48 19° 268° (W) 23:59:38 437.505
AISAT 26 Apr 23:56:31 23:59:54 21° 268° (W) 00:03:10 437.250
QB50P1 27 Apr 00:01:09 00:05:28 76° 102° (ESE) 00:09:45 145.935-145.965
AIST 1 27 Apr 00:09:00 00:12:38 27° 90° (E) 00:16:18
ANTELSAT 27 Apr 00:09:28 00:13:59 45° 289° (WNW) 00:18:25 437.575/2403.000
TISAT 1 27 Apr 00:18:47 00:22:56 72° 75° (ENE) 00:27:08 437.305
QB50P2 27 Apr 00:27:49 00:32:02 53° 287° (WNW) 00:36:14 145.880/145.840
ESTCUBE 1 27 Apr 00:40:57 00:43:31 14° 271° (W) 00:45:53 437.505/2401.250
NANOSAT C BR1 27 Apr 00:45:16 00:49:13 36° 289° (WNW) 00:53:08 145.865
POPSAT HIP 1 27 Apr 00:49:07 00:53:00 33° 290° (WNW) 00:56:50 437.405
SPROUT 27 Apr 00:54:36 00:58:34 36° 263° (W) 01:02:32 437.525
TIGRISAT 27 Apr 01:00:17 01:03:18 17° 296° (WNW) 01:06:08 435.000
ITUPSAT 1 27 Apr 01:00:38 01:04:55 34° 69° (ENE) 01:09:14 437.325
UNISAT 6 27 Apr 01:05:30 01:08:09 15° 297° (WNW) 01:10:36 437.425
BUGSAT 1 27 Apr 01:06:59 01:10:37 29° 290° (WNW) 01:14:13 437.445
RS-15 27 Apr 01:09:18 01:19:44 39° 251° (WSW) 01:30:15 29.354- 29.394
DUCHIFAT 1 27 Apr 01:19:42 01:22:35 17° 295° (WNW) 01:25:20 145.980
POLYITAN 1 27 Apr 01:20:23 01:23:13 17° 295° (WNW) 01:25:54 437.675
Cosmos 2504 27 Apr 01:25:10 01:33:05 62° 267° (W) 01:40:23 435.465 / 435.565
BEESAT 27 Apr 01:30:03 01:34:48 67° 73° (ENE) 01:39:34 436.000
Cosmos 2491 27 Apr 01:31:26 01:36:35 16° 305° (NW) 01:41:16 435.465 / 435.565
SWISSCUBE 27 Apr 01:32:46 01:37:33 78° 76° (ENE) 01:42:21 437.505
QB50P1 27 Apr 01:39:21 01:40:48 11° 298° (WNW) 01:42:02 145.935-145.965
AIST 1 27 Apr 01:46:41 01:50:17 25° 287° (WNW) 01:53:48
Oscar 19 27 Apr 01:54:31 01:59:21 38° 97° (E) 02:04:13 437.125/150
STARS 27 Apr 01:57:17 01:59:49 16° 64° (ENE) 02:02:31 437.465
GONETS M04 27 Apr 02:06:10 02:12:07 20° 59° (ENE) 02:18:28
CUSAT 1 27 Apr 02:13:46 02:17:33 15° 57° (ENE) 02:22:00 437.405
AIST 2 27 Apr 02:30:48 02:33:08 15° 111° (ESE) 02:35:39 435.215
ITAMSAT 1 27 Apr 02:32:32 02:36:50 27° 94° (E) 02:41:13 435.822/435.867
ITUPSAT 1 27 Apr 02:38:46 02:42:51 27° 266° (W) 02:46:53 437.325
KKS-1 27 Apr 02:40:16 02:44:39 66° 74° (ENE) 02:49:05 437.445
BEESAT 3 27 Apr 02:54:35 02:58:40 85° 303° (WNW) 03:02:50 437.485
BEESAT 2 27 Apr 02:57:46 03:01:52 86° 126° (SE) 03:06:04 435.950
DANDE 27 Apr 03:00:42 03:06:33 25° 65° (ENE) 03:13:18 436.750
Gurwin Techsat 1B 27 Apr 03:09:53 03:15:05 52° 99° (E) 03:20:16 435.225
BEESAT 27 Apr 03:10:44 03:13:12 13° 272° (W) 03:15:25 436.000
SWISSCUBE 27 Apr 03:14:21 03:16:05 11° 273° (W) 03:17:31 437.505
HORYU 2 27 Apr 03:18:22 03:19:33 11° 87° (E) 03:21:01 437.375
MOZHAYETS 4 27 Apr 03:19:49 03:21:53 13° 62° (ENE) 03:24:08
STARS 27 Apr 03:31:34 03:35:52 55° 260° (W) 03:40:13 437.465
Oscar 19 27 Apr 03:34:09 03:38:35 28° 294° (WNW) 03:42:55 437.125/150
Cosmos 2499 27 Apr 03:51:17 03:54:30 13° 54° (NE) 03:58:06 435.465 / 435.565
CUSAT 1 27 Apr 03:54:06 04:01:42 65° 77° (ENE) 04:10:02 437.405
GONETS M04 27 Apr 04:01:34 04:10:30 89° 86° (E) 04:19:21
AO-7 27 Apr 04:04:51 04:11:56 31° 94° (E) 04:19:10 29.400- 29.500
AIST 2 27 Apr 04:07:05 04:11:18 59° 307° (NW) 04:15:34 435.215
ITAMSAT 1 27 Apr 04:11:40 04:16:28 39° 291° (WNW) 04:21:14 435.822/435.867
KKS-1 27 Apr 04:19:59 04:21:50 12° 272° (W) 04:23:26 437.445
AUBIESAT-1 27 Apr 04:28:44 04:29:09 10° 54° (NE) 04:29:49 437.475
BEESAT 3 27 Apr 04:35:21 04:37:23 13° 324° (NW) 04:39:18 437.485
BEESAT 2 27 Apr 04:38:18 04:40:37 14° 323° (NW) 04:42:50 435.950
JAS-2 27 Apr 04:42:01 04:48:13 55° 98° (E) 04:53:42 435.910
DANDE 27 Apr 04:42:54 04:50:28 79° 262° (W) 04:59:03 436.750
Gurwin Techsat 1B 27 Apr 04:50:41 04:54:44 22° 296° (WNW) 04:58:40 435.225
HORYU 2 27 Apr 04:52:18 04:56:49 72° 286° (WNW) 05:01:16 437.375
MOZHAYETS 4 27 Apr 04:53:55 04:58:34 74° 258° (WSW) 05:03:14
CUBESAT XI-V 27 Apr 05:00:58 05:02:32 12° 62° (ENE) 05:04:19 437.345
M-CUBED/EXP-1 PRIME 27 Apr 05:18:04 05:22:20 32° 64° (ENE) 05:26:37 437.505
CUSAT 1 27 Apr 05:37:33 05:44:08 30° 272° (W) 05:50:55 437.405
Cosmos 2499 27 Apr 05:41:49 05:49:37 71° 79° (E) 05:56:51 435.465 / 435.565
STRAND 1 27 Apr 05:42:01 05:45:17 18° 62° (ENE) 05:48:43 437.568
Cubesat XI-IV 27 Apr 05:46:10 05:46:46 10° 85° (E) 05:47:45 437.490
AIST 2 27 Apr 05:49:44 05:50:51 11° 327° (NNW) 05:51:50 435.215
AO-7 27 Apr 05:57:05 06:05:16 62° 294° (WNW) 06:13:24 29.400- 29.500
AUBIESAT-1 27 Apr 05:58:25 06:03:11 69° 69° (ENE) 06:07:56 437.475
GONETS M04 27 Apr 06:00:24 06:06:16 19° 281° (W) 06:11:40
PRISM 27 Apr 06:27:39 06:31:42 54° 73° (ENE) 06:35:46 437.425
JAS-2 27 Apr 06:27:49 06:32:52 25° 299° (WNW) 06:37:20 435.910
DANDE 27 Apr 06:28:16 06:33:05 17° 276° (W) 06:37:44 436.750
CUBESAT XI-V 27 Apr 06:34:46 06:39:24 81° 259° (W) 06:44:02 437.345
M-CUBED/EXP-1 PRIME 27 Apr 06:52:47 06:57:07 32° 260° (W) 07:01:25 437.505
PCSat 27 Apr 07:03:45 07:07:03 17° 106° (ESE) 07:10:35 145.827
CUTE-I 27 Apr 07:12:19 07:17:39 69° 102° (ESE) 07:22:57 437.470
STRAND 1 27 Apr 07:19:00 07:24:03 62° 258° (WSW) 07:29:08 437.568
Cubesat XI-IV 27 Apr 07:22:26 07:27:48 85° 104° (ESE) 07:33:09 437.490
O/OREOS (USA 219) 27 Apr 07:29:30 07:33:42 37° 60° (ENE) 07:37:53 437.305
AUBIESAT-1 27 Apr 07:35:42 07:38:25 14° 267° (W) 07:40:55 437.475
Cosmos 2499 27 Apr 07:36:24 07:41:57 21° 279° (W) 07:46:57 435.465 / 435.565
Cosmos 2491 27 Apr 07:44:51 07:47:47 12° 51° (NE) 07:51:21 435.465 / 435.565
AO-7 27 Apr 07:52:03 07:56:34 15° 314° (NW) 08:00:42 29.400- 29.500
HO-68 27 Apr 07:58:54 08:00:57 12° 83° (E) 08:03:33 435.675
GOMX 1 27 Apr 08:00:00 08:01:32 11° 86° (E) 08:03:27 467.674
PRISM 27 Apr 08:05:29 08:07:34 13° 270° (W) 08:09:26 437.425
BRITE-PL 27 Apr 08:18:35 08:22:54 27° 94° (E) 08:27:32 437.365/2234.400
CUTE 1.7 + AOD 2 27 Apr 08:25:09 08:25:49 10° 87° (E) 08:26:45 437.475
DOVE 4 27 Apr 08:27:40 08:30:24 15° 88° (E) 08:33:26 437.250
PCSat 27 Apr 08:44:33 08:49:57 69° 302° (WNW) 08:55:24 145.827
CUTE-I 27 Apr 08:53:45 08:57:14 17° 299° (WNW) 09:00:32 437.470
YUBILEINY 27 Apr 08:55:26 08:57:07 11° 74° (ENE) 08:59:34 435.215
CINEMA 3 27 Apr 08:59:47 09:02:33 15° 88° (E) 09:05:33 145.822/145.860
Cubesat XI-IV 27 Apr 09:04:25 09:07:16 14° 300° (WNW) 09:09:53 437.490
O/OREOS (USA 219) 27 Apr 09:09:26 09:12:55 22° 257° (WSW) 09:16:15 437.305
COMPASS 1 27 Apr 09:10:15 09:13:34 23° 93° (E) 09:16:56 437.405
ANTELSAT 27 Apr 09:33:38 09:36:52 20° 65° (ENE) 09:40:16 437.575/2403.000
GOMX 1 27 Apr 09:35:10 09:40:22 89° 81° (E) 09:45:49 467.674
BEESAT 3 27 Apr 09:36:40 09:38:06 12° 35° (NE) 09:39:38 437.485
Oscar 11 27 Apr 09:36:43 09:39:43 18° 91° (E) 09:42:49 145.826/435.025
SEEDS 27 Apr 09:37:50 09:42:02 57° 100° (E) 09:46:11 437.485
Cosmos 2491 27 Apr 09:38:25 09:47:08 60° 76° (ENE) 09:55:51 435.465 / 435.565
BEESAT 2 27 Apr 09:40:32 09:41:38 11° 34° (NNE) 09:42:53 435.950
ZACube-1 27 Apr 09:42:14 09:44:09 13° 87° (E) 09:46:19 437.345
HO-68 27 Apr 09:42:56 09:50:08 72° 104° (ESE) 09:57:17 435.675
QB50P2 27 Apr 09:48:14 09:50:00 13° 63° (ENE) 09:51:57 145.880/145.840
CANX-2 27 Apr 09:49:09 09:53:27 79° 284° (WNW) 09:57:42 2200.000
AAUSAT CUBESAT 2 27 Apr 09:50:51 09:54:59 56° 100° (E) 09:59:05 437.432
BRITE-PL 27 Apr 09:56:43 10:01:32 41° 288° (WNW) 10:06:35 437.365/2234.400
CUTE 1.7 + AOD 2 27 Apr 09:58:02 10:02:19 70° 286° (WNW) 10:06:32 437.475
DOVE 4 27 Apr 10:03:34 10:08:41 73° 285° (WNW) 10:13:59 437.250
NANOSAT C BR1 27 Apr 10:04:00 10:06:47 18° 66° (ENE) 10:09:42 145.865
POPSAT HIP 1 27 Apr 10:07:46 10:10:45 20° 66° (ENE) 10:13:52 437.405
SO-50 27 Apr 10:09:59 10:11:32 12° 108° (ESE) 10:13:23 436.795
DX 1 27 Apr 10:13:42 10:16:07 15° 90° (E) 10:18:43 434.975-435.025
TIGRISAT 27 Apr 10:21:34 10:26:00 56° 73° (ENE) 10:30:34 435.000
CUBEBUG 2 27 Apr 10:22:57 10:27:38 52° 99° (E) 10:32:17 437.445
BUGSAT 1 27 Apr 10:23:18 10:26:06 19° 67° (ENE) 10:29:01 437.445
UNISAT 6 27 Apr 10:26:36 10:31:06 65° 75° (ENE) 10:35:45 437.425
PCSat 27 Apr 10:31:27 10:34:29 15° 324° (NW) 10:37:21 145.827
CINEMA 3 27 Apr 10:35:17 10:40:15 66° 285° (WNW) 10:45:15 145.822/145.860
DUCHIFAT 1 27 Apr 10:36:10 10:40:01 37° 71° (ENE) 10:43:56 145.980
POLYITAN 1 27 Apr 10:37:15 10:41:12 40° 71° (ENE) 10:45:12 437.675
YUBILEINY 27 Apr 10:43:43 10:52:21 63° 92° (E) 11:01:02 435.215
UWE-3 27 Apr 10:45:23 10:50:07 73° 102° (ESE) 10:54:47 435.000/436.395/437.385
COMPASS 1 27 Apr 10:45:34 10:49:19 31° 290° (WNW) 10:52:59 437.405
DELFI C3 27 Apr 10:50:14 10:54:17 89° 287° (WNW) 10:58:19 145.870
FUNcube-1 27 Apr 10:50:18 10:54:54 64° 101° (E) 10:59:26 145.935
AIST 2 27 Apr 10:50:38 10:53:21 17° 39° (NE) 10:56:08 435.215
UKube-1 27 Apr 10:53:06 10:57:07 36° 97° (E) 11:01:08 .
QB50P1 27 Apr 10:54:30 10:58:38 62° 74° (ENE) 11:02:50 145.935-145.965
ESTCUBE 1 27 Apr 10:56:16 10:57:23 11° 87° (E) 10:58:48 437.505/2401.250
HUMSAT D 27 Apr 10:57:31 11:01:33 37° 97° (E) 11:05:34 437.325/437.525
ANTELSAT 27 Apr 11:08:56 11:13:20 46° 262° (W) 11:17:50 437.575/2403.000
Oscar 11 27 Apr 11:12:01 11:16:07 40° 288° (WNW) 11:20:10 145.826/435.025
BEESAT 3 27 Apr 11:12:47 11:16:54 73° 54° (NE) 11:20:56 437.485
SEEDS 27 Apr 11:15:08 11:17:25 14° 296° (WNW) 11:19:31 437.485
GOMX 1 27 Apr 11:15:22 11:17:55 13° 298° (WNW) 11:20:16 467.674
ZACube-1 27 Apr 11:16:27 11:21:04 67° 285° (WNW) 11:25:37 437.345
BEESAT 2 27 Apr 11:16:29 11:20:37 66° 54° (NE) 11:24:40 435.950
QB50P2 27 Apr 11:21:14 11:25:25 65° 259° (W) 11:29:39 145.880/145.840
VELOX 1 27 Apr 11:26:35 11:30:49 42° 98° (E) 11:35:03 145.980
CUBEBUG 1 27 Apr 11:27:19 11:30:37 21° 93° (E) 11:34:01 437.445
AAUSAT CUBESAT 2 27 Apr 11:27:56 11:30:12 14° 296° (WNW) 11:32:16 437.432
50 SAT 27 Apr 11:28:56 11:32:53 49° 99° (E) 11:36:47 437.505
HO-68 27 Apr 11:31:39 11:37:18 25° 302° (WNW) 11:42:43 435.675
Cosmos 2491 27 Apr 11:36:04 11:43:33 31° 276° (W) 11:50:49 435.465 / 435.565
ISS 27 Apr 11:37:17 11:40:27 54° 142° (SE) 11:43:39 145.825
NANOSAT C BR1 27 Apr 11:38:20 11:42:20 42° 261° (W) 11:46:23 145.865
POPSAT HIP 1 27 Apr 11:42:28 11:46:25 38° 263° (W) 11:50:23 437.405
DOVE 4 27 Apr 11:44:43 11:45:43 10° 300° (WNW) 11:46:24 437.250
AISAT 27 Apr 11:45:03 11:49:31 70° 102° (ESE) 11:54:00 437.250
SO-50 27 Apr 11:46:46 11:51:26 84° 305° (NW) 11:56:17 436.795
DX 1 27 Apr 11:48:29 11:52:45 52° 287° (WNW) 11:56:59 434.975-435.025
AIST 1 27 Apr 11:52:00 11:56:18 85° 81° (E) 12:00:35
BUGSAT 1 27 Apr 11:57:39 12:01:22 35° 263° (W) 12:05:06 437.445
TIGRISAT 27 Apr 12:00:26 12:03:12 15° 271° (W) 12:05:48 435.000
CUBEBUG 2 27 Apr 12:00:35 12:03:57 19° 295° (WNW) 12:07:11 437.445
TISAT 1 27 Apr 12:05:07 12:06:06 11° 88° (E) 12:07:20 437.305
UNISAT 6 27 Apr 12:06:11 12:08:27 13° 273° (W) 12:10:30 437.425
Cosmos 2504 27 Apr 12:11:47 12:18:10 24° 82° (E) 12:24:49 435.465 / 435.565
DUCHIFAT 1 27 Apr 12:12:56 12:16:00 19° 268° (W) 12:18:59 145.980
POLYITAN 1 27 Apr 12:14:21 12:17:20 18° 269° (W) 12:20:12 437.675
UWE-3 27 Apr 12:23:39 12:26:05 14° 297° (WNW) 12:28:20 435.000/436.395/437.385
FUNcube-1 27 Apr 12:28:06 12:30:44 15° 297° (WNW) 12:33:11 145.935
AIST 2 27 Apr 12:28:13 12:32:28 71° 238° (WSW) 12:36:36 435.215
UKube-1 27 Apr 12:29:43 12:33:04 22° 294° (WNW) 12:36:19 .
ESTCUBE 1 27 Apr 12:30:23 12:34:53 72° 285° (WNW) 12:39:20 437.505/2401.250
QB50P1 27 Apr 12:33:23 12:35:01 12° 272° (W) 12:36:25 145.935-145.965
HUMSAT D 27 Apr 12:33:46 12:37:07 21° 293° (WNW) 12:40:20 437.325/437.525
SPROUT 27 Apr 12:40:17 12:44:16 35° 97° (E) 12:48:16 437.525
YUBILEINY 27 Apr 12:42:14 12:49:53 30° 294° (WNW) 12:57:19 435.215
BEESAT 3 27 Apr 12:53:17 12:54:23 11° 251° (WSW) 12:55:15 437.485
Gurwin Techsat 1B 27 Apr 12:55:32 12:57:44 13° 59° (ENE) 13:00:11 435.225
BEESAT 2 27 Apr 12:56:31 12:58:14 12° 250° (WSW) 12:59:46 435.950
CUBEBUG 1 27 Apr 13:03:06 13:07:07 36° 290° (WNW) 13:11:07 437.445
VELOX 1 27 Apr 13:03:51 13:07:08 20° 294° (WNW) 13:10:17 145.980
50 SAT 27 Apr 13:05:00 13:07:19 15° 295° (WNW) 13:09:28 437.505
Oscar 19 27 Apr 13:11:59 13:17:02 60° 72° (ENE) 13:22:10 437.125/150
ISS 27 Apr 13:14:06 13:16:59 27° 340° (NNW) 13:19:50 145.825
AO-7 27 Apr 13:19:26 13:21:21 11° 41° (NE) 13:23:45 29.400- 29.500
RS-15 27 Apr 13:22:13 13:31:32 36° 108° (ESE) 13:41:16 29.354- 29.394
AISAT 27 Apr 13:23:27 13:25:37 13° 298° (WNW) 13:27:35 437.250
SO-50 27 Apr 13:29:46 13:32:48 16° 326° (NW) 13:35:45 436.795
BEESAT 27 Apr 13:30:52 13:33:43 16° 90° (E) 13:36:45 436.000
SWISSCUBE 27 Apr 13:33:24 13:36:39 19° 91° (E) 13:40:02 437.505
TISAT 1 27 Apr 13:38:11 13:42:26 68° 285° (WNW) 13:46:39 437.305
ITAMSAT 1 27 Apr 13:51:05 13:55:58 44° 70° (ENE) 14:00:53 435.822/435.867
Cosmos 2504 27 Apr 14:01:54 14:10:50 78° 280° (W) 14:19:35 435.465 / 435.565
SPROUT 27 Apr 14:16:48 14:20:11 22° 293° (WNW) 14:23:28 437.525
HORYU 2 27 Apr 14:17:28 14:19:25 13° 62° (ENE) 14:21:35 437.375
Gurwin Techsat 1B 27 Apr 14:31:42 14:37:01 87° 76° (ENE) 14:42:22 435.225
KKS-1 27 Apr 14:32:40 14:34:22 12° 88° (E) 14:36:19 437.445
ITUPSAT 1 27 Apr 14:37:38 14:42:24 74° 102° (ESE) 14:47:09 437.325
ISS 27 Apr 14:51:52 14:54:05 17° 360° (N) 14:56:19 145.825
JAS-2 27 Apr 14:53:15 14:59:56 33° 64° (ENE) 15:06:29 435.910
Oscar 19 27 Apr 14:53:26 14:56:53 17° 271° (W) 15:00:08 437.125/150
AO-7 27 Apr 15:04:33 15:12:15 46° 62° (ENE) 15:20:04 29.400- 29.500
BEESAT 27 Apr 15:07:19 15:11:59 56° 288° (WNW) 15:16:37 436.000
GONETS M04 27 Apr 15:09:56 15:15:46 21° 80° (E) 15:22:02
SWISSCUBE 27 Apr 15:10:15 15:14:50 48° 288° (WNW) 15:19:23 437.505
STARS 27 Apr 15:20:56 15:24:37 25° 94° (E) 15:28:21 437.465
ITAMSAT 1 27 Apr 15:31:32 15:35:42 24° 267° (W) 15:39:46 435.822/435.867
RS-15 27 Apr 15:32:27 15:43:17 67° 310° (NW) 15:54:27 29.354- 29.394
PCSat 27 Apr 15:49:10 15:53:08 21° 42° (NE) 15:57:12 145.827
HORYU 2 27 Apr 15:51:03 15:55:33 72° 258° (WSW) 16:00:04 437.375
Cosmos 2504 27 Apr 16:00:07 16:05:54 18° 302° (WNW) 16:11:10 435.465 / 435.565
KKS-1 27 Apr 16:07:04 16:11:33 66° 286° (WNW) 16:16:00 437.445
VERMONT LUNAR 27 Apr 16:07:51 16:10:40 25° 158° (SSE) 16:13:32 437.305
Gurwin Techsat 1B 27 Apr 16:15:50 16:17:50 12° 274° (W) 16:19:29 435.225
ITUPSAT 1 27 Apr 16:17:17 16:19:46 14° 299° (WNW) 16:22:03 437.325
ISS 27 Apr 16:28:21 16:31:12 27° 20° (NNE) 16:34:05 145.825
Cosmos 2499 27 Apr 16:33:00 16:34:07 10° 75° (ENE) 16:36:00 435.465 / 435.565
JAS-2 27 Apr 16:36:53 16:44:39 59° 261° (W) 16:52:05 435.910
MOZHAYETS 4 27 Apr 16:48:56 16:52:40 25° 93° (E) 16:56:26
PHONESAT 2.4 27 Apr 16:56:35 16:59:28 23° 156° (SSE) 17:02:24 2401.200-2431.200
STARS 27 Apr 16:57:08 17:01:06 32° 291° (WNW) 17:05:01 437.465
AO-7 27 Apr 16:57:22 17:05:09 43° 262° (W) 17:12:53 29.400- 29.500
CUTE-I 27 Apr 16:57:32 17:00:49 17° 61° (ENE) 17:04:18 437.470
GONETS M04 27 Apr 17:02:52 17:11:40 83° 279° (W) 17:20:34
CUSAT 1 27 Apr 17:04:22 17:08:03 52° 94° (E) 17:12:59 437.405
Cubesat XI-IV 27 Apr 17:07:09 17:11:00 21° 63° (ENE) 17:14:59 437.490
PCSat 27 Apr 17:31:45 17:37:12 75° 242° (WSW) 17:42:35 145.827
VERMONT LUNAR 27 Apr 17:44:30 17:47:49 56° 174° (S) 17:51:09 437.305
RS-15 27 Apr 17:49:16 17:58:23 28° 340° (NNW) 18:07:38 29.354- 29.394
DANDE 27 Apr 17:57:48 18:01:17 54° 286° (WNW) 18:05:58 436.750
ISS 27 Apr 18:04:32 18:07:44 54° 218° (SW) 18:10:55 145.825
Cosmos 2499 27 Apr 18:17:12 18:25:49 60° 92° (E) 18:34:13 435.465 / 435.565
MOZHAYETS 4 27 Apr 18:25:49 18:29:58 34° 290° (WNW) 18:34:03
HO-68 27 Apr 18:30:01 18:32:26 12° 49° (NE) 18:35:16 435.675
CUBESAT XI-V 27 Apr 18:31:18 18:34:58 23° 93° (E) 18:38:43 437.345
PHONESAT 2.4 27 Apr 18:33:51 18:37:21 54° 172° (S) 18:40:53 2401.200-2431.200
M-CUBED/EXP-1 PRIME 27 Apr 18:34:51 18:37:38 18° 95° (E) 18:40:21 437.505
CUTE-I 27 Apr 18:35:07 18:40:24 69° 257° (WSW) 18:45:44 437.470
SO-50 27 Apr 18:37:52 18:41:25 20° 38° (NE) 18:45:05 436.795
Cubesat XI-IV 27 Apr 18:45:32 18:50:44 55° 259° (W) 18:55:59 437.490
CUSAT 1 27 Apr 18:49:08 18:51:40 15° 303° (WNW) 18:54:23 437.405
GONETS M04 27 Apr 19:04:20 19:10:14 18° 303° (WNW) 19:15:43
GOMX 1 27 Apr 19:10:31 19:11:27 11° 60° (ENE) 19:12:39 467.674
AUBIESAT-1 27 Apr 19:14:25 19:18:20 43° 103° (ESE) 19:21:56 437.475
VERMONT LUNAR 27 Apr 19:21:50 19:25:07 49° 191° (S) 19:28:24 437.305
STRAND 1 27 Apr 19:28:49 19:33:37 41° 98° (E) 19:38:27 437.568
BRITE-PL 27 Apr 19:31:19 19:34:47 26° 68° (ENE) 19:38:27 437.365/2234.400
DOVE 4 27 Apr 19:35:18 19:37:22 14° 62° (ENE) 19:39:42 437.250
PRISM 27 Apr 19:44:33 19:48:40 82° 103° (ESE) 19:52:46 437.425
COMPASS 1 27 Apr 20:02:48 20:05:43 19° 67° (ENE) 20:08:45 437.405
CINEMA 3 27 Apr 20:03:17 20:05:31 14° 62° (ENE) 20:07:58 145.822/145.860
RS-15 27 Apr 20:06:49 20:15:41 26° 15° (NNE) 20:24:59 29.354- 29.394
CUBESAT XI-V 27 Apr 20:08:18 20:12:31 36° 290° (WNW) 20:16:42 437.345
M-CUBED/EXP-1 PRIME 27 Apr 20:08:51 20:12:45 37° 295° (WNW) 20:16:19 437.505
Cosmos 2499 27 Apr 20:11:38 20:19:29 33° 292° (WNW) 20:26:55 435.465 / 435.565
HO-68 27 Apr 20:11:51 20:18:50 58° 68° (ENE) 20:25:54 435.675
PHONESAT 2.4 27 Apr 20:11:55 20:15:26 54° 189° (S) 20:18:56 2401.200-2431.200
SO-50 27 Apr 20:17:36 20:22:35 78° 239° (WSW) 20:27:29 436.795
SEEDS 27 Apr 20:30:30 20:34:33 44° 72° (ENE) 20:38:40 437.485
Oscar 11 27 Apr 20:32:45 20:35:32 17° 65° (ENE) 20:38:27 145.826/435.025
ZACube-1 27 Apr 20:40:01 20:41:29 12° 62° (ENE) 20:43:12 437.345
AAUSAT CUBESAT 2 27 Apr 20:42:18 20:46:17 41° 72° (ENE) 20:50:17 437.432
CANX-2 27 Apr 20:42:28 20:46:46 81° 77° (ENE) 20:51:07 2200.000
GOMX 1 27 Apr 20:44:43 20:48:56 79° 258° (WSW) 20:53:25 467.674
AUBIESAT-1 27 Apr 20:50:02 20:52:46 17° 302° (WNW) 20:55:16 437.475
Cosmos 2491 27 Apr 20:50:55 20:53:21 12° 74° (ENE) 20:56:29 435.465 / 435.565
CUTE 1.7 + AOD 2 27 Apr 20:51:15 20:55:34 90° 255° (WSW) 20:59:54 437.475
YUBILEINY 27 Apr 20:53:21 21:00:53 32° 67° (ENE) 21:08:33 435.215
VERMONT LUNAR 27 Apr 20:59:42 21:02:11 19° 206° (SSW) 21:04:37 437.305
STRAND 1 27 Apr 21:08:28 21:12:39 25° 295° (WNW) 21:16:44 437.568
BRITE-PL 27 Apr 21:09:46 21:13:20 26° 266° (W) 21:16:58 437.365/2234.400
DOVE 4 27 Apr 21:10:21 21:14:36 64° 260° (W) 21:19:07 437.250
DX 1 27 Apr 21:10:33 21:13:01 16° 64° (ENE) 21:15:40 434.975-435.025
